User: anonymous   Login
Location: Unspecified
(0.0000°N, 0.0000°E)
Time: 11:07:42
(UTC+00:00)
Language:

POPACS 2 - Orbit

View from above orbital plane
View from above orbital plane
View from above satellite
View from above satellite

Ground track
Ground track

The orbit is defined by the following mean orbital elements,

1 39269U          26145.49192957 +.00000000 +00000-0 +18791-3 0 00005
2 39269  80.9912 170.1633 0418053 266.7825  88.5495 14.90653610    02
Epoch (UTC): 25 May 2026 11:48:22
Eccentricity: 0.0418053
inclination: 80.9912°
perigee height: 304 km
apogee height: 887 km
right ascension of ascending node: 170.1633°
argument of perigee: 266.7825°
revolutions per day: 14.90653610
mean anomaly at epoch: 88.5495°

The dashed part of the orbit path shows where the satellite is in the earth's shadow,  

DLR